Location: Kolin
(50.0330°N, 15.2000°E)
Time: 09:49:21
(UTC+02:00)

ISS - Pass Details

Date: 26 May 2021
Orbit: 417 x 422 km, 51.6° (Epoch: 13 June)

Event Time Altitude Azimuth Distance (km) Brightness Sun altitude
Rises 23:01:40 0° 287° (WNW) 2,368 0.8 -14.3°
Reaches altitude 10° 23:03:51 10° 279° (W) 1,502 -0.5 -14.5°
Maximum altitude 23:06:59 37° 211° (SSW) 670 -3.0 -14.7°
Enters shadow 23:07:52 31° 175° (S) 767 -3.0 -14.7°
